Location: Gleizolles
(44.4833°N, 6.7667°E)
Time: 17:16:46
(UTC+00:00)

Explorer 7 - Pass Details

Date: 19 June 2024
Orbit: 465 x 619 km, 50.3° (Epoch: 12 July)

Event Time Altitude Azimuth Distance (km) Brightness Sun altitude
Rises 17:15:35 0° 295° (WNW) 2,512 11.7 19.4°
Reaches altitude 10° 17:17:47 10° 290° (WNW) 1,624 11.6 19.0°
Maximum altitude 17:21:19 51° 214° (SW) 592 7.4 18.4°
Drops below altitude 10° 17:24:51 10° 138° (SE) 1,616 8.8 17.8°
Sets 17:27:02 0° 133° (SE) 2,499 9.6 17.5°
